Flag for Ireland Weather past 2 weeks in Cork, Ireland

Now
51 °F

Scattered clouds.


Feels Like: 51 °F
Forecast: 42 / 64 °F
Wind: 3 mph from Northwest

Location: Cork Airport

Current Time: Aug 22, 2014 at 9:55:51 AM

Latest Report: Aug 22, 2014 at 9:00 AM


Visibility: 25 mi

Pressure: 29.99 "Hg

Humidity: 88%

Dew point: 48 °F

Location of CorkLocation

Historic Weather in Cork — Graph

°F

Cork temperature yesterday

Maximum temperature yesterday: 62 °F (at 3:00 PM)
Minimum temperature yesterday: 46 °F (at 5:00 AM)
Average temperature yesterday: 54 °F

Past Weeks' High & Low Weather Summary

 TemperatureHumidityPressure
High67 °F (Aug 8, 5:00 PM)100% (Aug 8, 9:00 AM)30.28 "Hg (Aug 8, 9:00 AM)
Low46 °F (Aug 21, 5:00 AM)47% (Aug 8, 3:00 PM)29.44 "Hg (Aug 10, 4:00 AM)
Average56 °F78%29.91 "Hg
* Reported Aug 7 8:00 AM — Aug 22 8:00 AM, Cork, Weather by CustomWeather, © 2014

Note: Actual official high and low records may vary slightly from our data, if they occured in-between our weather recording intervals... More about our weather records

Advertising

Cork weather history for previous 24 hours

 ConditionsComfort  
Time TempWeatherWind HumidityBarometerVisibility
8:00 AM
Aug 22
50 °FOvercast.5 mph93%29.97 "Hg28 mi
7:00 AM49 °FScattered clouds.5 mph94%29.96 "Hg22 mi
6:00 AM49 °FPassing clouds.3 mph94%29.95 "Hg19 mi
5:00 AM50 °FPassing clouds.3 mph91%29.94 "Hg19 mi
4:00 AM52 °FOvercast.5 mph90%29.94 "Hg19 mi
3:00 AM51 °FOvercast.3 mph91%29.93 "Hg19 mi
2:00 AM51 °FPassing clouds.3 mph90%29.93 "Hg19 mi
1:00 AM51 °FPassing clouds.2 mph89%29.93 "Hg19 mi
12:00 AM51 °FPassing clouds.3 mph89%29.93 "Hg19 mi
11:00 PM
Aug 21
53 °FPassing clouds.6 mph86%29.92 "Hg19 mi
10:00 PM53 °FPassing clouds.6 mph87%29.92 "Hg19 mi
9:00 PM53 °FPassing clouds.5 mph90%29.91 "Hg19 mi
8:00 PM55 °FSprinkles. Overcast.7 mph86%29.90 "Hg19 mi
7:00 PM57 °FSprinkles. Overcast.10 mph75%29.90 "Hg19 mi
6:00 PM60 °FOvercast.7 mph67%29.88 "Hg19 mi
5:00 PM61 °FPartly sunny.8 mph65%29.89 "Hg25 mi
4:00 PM60 °FPartly sunny.7 mph66%29.90 "Hg25 mi
3:00 PM62 °FPartly sunny.8 mph68%29.91 "Hg19 mi
2:00 PM59 °FPartly sunny.8 mph75%29.93 "Hg31 mi
1:00 PM59 °FOvercast.8 mph72%29.95 "Hg22 mi
12:00 PM58 °FOvercast.6 mph78%29.96 "Hg19 mi
11:00 AM56 °FOvercast.7 mph82%29.97 "Hg31 mi
10:00 AM54 °FOvercast.6 mph84%29.99 "Hg31 mi
9:00 AM52 °FOvercast.6 mph88%30.00 "Hg25 mi
Weather by CustomWeather, © 2014

See weather overviewHow to use our weather pages